This is the latest recevied weather packets stored in our database for station/object EA1GHG-11. If no packets are shown the sender has not sent any weather packets the latest 10 day(s).
| Time | Temp. | Humidity | Pressure | Rain* | Wind** | Luminosity | Snow |
|---|---|---|---|---|---|---|---|
| 1788611474 | 32.22° C | 78% | 1022.8 hPa | - | - | - | - |
| 1788609974 | 32.22° C | 88% | 1023 hPa | - | - | - | - |
| 1788608474 | 31.11° C | 100% | 1023.1 hPa | - | - | - | - |
| 1788606974 | 29.44° C | 100% | 1023.5 hPa | - | - | - | - |
| 1788605474 | 30° C | 100% | 1023.6 hPa | - | - | - | - |
| 1788603973 | 28.33° C | 100% | 1023.8 hPa | - | - | - | - |
| 1788602473 | 27.78° C | 100% | 1023.8 hPa | - | - | - | - |
| 1788600973 | 26.67° C | 100% | 1023.7 hPa | - | - | - | - |
| 1788599473 | 26.11° C | 100% | 1023.8 hPa | - | - | - | - |
| 1788597973 | 23.89° C | 100% | 1023.7 hPa | - | - | - | - |
| 1788596473 | 22.22° C | 100% | 1023.9 hPa | - | - | - | - |
| 1788594972 | 21.11° C | 100% | 1023.9 hPa | - | - | - | - |
| 1788594373 | 20.56° C | 100% | 1023.9 hPa | - | - | - | - |
| 1788592873 | 19.44° C | 100% | 1023.8 hPa | - | - | - | - |
| 1788591373 | 18.89° C | 100% | 1023.9 hPa | - | - | - | - |
| 1788589873 | 18.89° C | 100% | 1023.7 hPa | - | - | - | - |
| 1788588372 | 18.89° C | 100% | 1023.8 hPa | - | - | - | - |
| 1788586872 | 18.89° C | 100% | 1023.8 hPa | - | - | - | - |
| 1788585404 | 19.44° C | 100% | 1023.9 hPa | - | - | - | - |
| 1788585372 | 19.44° C | 100% | 1023.9 hPa | - | - | - | - |
| 1788583872 | 20° C | 100% | 1023.8 hPa | - | - | - | - |
| 1788582372 | 20.56° C | 100% | 1024.2 hPa | - | - | - | - |
| 1788580872 | 20.56° C | 100% | 1024.2 hPa | - | - | - | - |
| 1788579372 | 21.67° C | 100% | 1024.3 hPa | - | - | - | - |
| 1788577872 | 21.11° C | 100% | 1024.2 hPa | - | - | - | - |
* Rain since midnight (hover to see other rain measurements)
** Current wind speed in m/s (hover to see current wind gust speed)